Weather in Kamenka

Russia / Saint-Petersburg and Leningrad Oblast     60°26′46″N   29°05′12″E
temp.,
°C
wind,
m/s
gust,
m/s
humid.,
%
clouds,
%
prec.,
mm/h
press.,
hPa
HPBL,
m
2 december, thu
thu200:00−8wnw38875 0.0 992256
03:00−10wnw269151 0.0 993129
06:00−11wnw119542 0.0 99410
09:00−12ese0096100 0.0 99410
12:00−9e1185100 0.0 99551
15:00−9ene2487100 0.0 99498
18:00−10ene2793100 0.0 995140
21:00−11ene269245 0.0 995114
3 december, fri
fri300:00−11ne279662 0.0 995124
03:00−10ne3109477 0.0 995214
06:00−9ne3109488 0.0 995223
09:00−9ne31194100 0.0 995250
12:00−6ne41088100 0.0 996591
15:00−5ne51183100 0.0 995733
18:00−5ne51283100 0.0 996726
21:00−5nne51291100 0.2 996833
4 december, sat
sat400:00−6nne51291100 0.4 997752
03:00−8n5129196 0.6 999547
06:00−10n4109298 0.2 1001366
09:00−10n4108976 0.3 1003360
12:00−10n388781 0.0 1005312
15:00−11nne388977 0.0 1007302
18:00−12nne389272 0.0 1010243
21:00−12nne389457 0.0 1012215
5 december, sun
sun500:00−11nne389596 0.0 1014234
03:00−11nne399573 0.0 1016258
06:00−10ne399687 0.0 1017299
09:00−9ne389292 0.1 1018399
12:00−9ene3892100 0.1 1020433
15:00−8ene3792100 0.4 1020748
18:00−10ene399197 0.1 1021707
21:00−10e3109299 0.2 1022618
6 december, mon
mon600:00−10e4118992 0.1 1022610
03:00−10e41290100 0.1 1022515
06:00−9e51292100 0.4 1021541
09:00−8e41292100 0.9 1021541
12:00−7e41192100 0.5 1021526
15:00−7e41092100 1.1 1020498
18:00−7e3891100 0.3 1020442
21:00−8e379492 0.4 1020326